Powrót do katalogu

STARLINK-31129

AktywnyŁącznośćVLEO
NORAD 58624·PAYLOAD·🇺🇸 United States

Wystrzelony Dec 23, 2023 z Cape Canaveral Space Force Station

Loading…

Następne Przeloty (najbliższe 24 godziny)

TLE

ŚwieżeSource: CelesTrak SupGP

Epoka: Sep 14, 2026, 21:09 UTC

1 58624C 23203G   26257.88173611  .00011741  00000+0  42533-3 0  2572
2 58624  43.0001  78.6488 0001295 270.7943 164.6012 15.27566255    10

Śledź STARLINK-31129 w czasie rzeczywistym z AllMySat

Download on the App Store